• Processing (Info)

  • MPEC 2019-U176 : 2019 UW6

    The following Minor Planet Electronic Circular may be linked-to from your own Web pages, but must not otherwise be redistributed electronically.

    A form allowing access to any MPEC is at the bottom of this page.


    Read MPEC 2019-U175 Read MPEC 2019-U177


    M.P.E.C. 2019-U176                             Issued 2019 October 26, 03:16 UT
    
         The Minor Planet Electronic Circulars contain information on unusual
             minor planets and routine data on comets.  They are published
        on behalf of Division F of the International Astronomical Union by the
              Minor Planet Center, Smithsonian Astrophysical Observatory,
                              Cambridge, MA 02138, U.S.A.
    
                 Prepared using the Tamkin Foundation Computer Network
    
                                  MPC@CFA.HARVARD.EDU
                URL https://www.minorplanetcenter.net/    ISSN 1523-6714
    
                                    2019 UW6                                 
    
    
    Observations:
         K19U06W* C2019 10 24.29312 04 05 05.06 +19 39 53.3                VEU176G96
         K19U06W  C2019 10 24.29827 04 05 09.62 +19 44 06.5          19.6 GVEU176G96
         K19U06W  C2019 10 24.30857 04 05 18.46 +19 52 35.3          20.1 GVEU176G96
         K19U06W  C2019 10 24.33267404 05 38.67 +20 12 10.8          20.0 GVEU176H01
         K19U06W  C2019 10 24.34128704 05 46.29 +20 19 14.8          19.7 GVEU176H01
         K19U06W  C2019 10 24.34695204 05 51.28 +20 23 53.2          19.7 GVEU176H01
         K19U06W  C2019 10 24.35529804 05 58.66 +20 30 44.5          19.4 GVEU176H01
         K19U06W  C2019 10 24.38828 04 06 29.19 +20 57 58.8          19.9 GVEU176I52
         K19U06W  C2019 10 24.39016 04 06 30.91 +20 59 31.3          19.9 GVEU176I52
         K19U06W  C2019 10 24.39206 04 06 32.59 +21 01 05.5          19.5 GVEU176I52
         K19U06W  C2019 10 24.39398 04 06 34.32 +21 02 40.0          20.0 GVEU176I52
         K19U06W  C2019 10 24.52115 04 08 31.78 +22 47 29.1          20.0 GVEU176G96
         K19U06W  C2019 10 24.52144 04 08 32.05 +22 47 43.7          19.6 GVEU176G96
         K19U06W  C2019 10 24.52173 04 08 32.35 +22 47 56.0          21.0 GVEU176G96
         K19U06W  C2019 10 24.52202 04 08 32.59 +22 48 12.1          19.9 GVEU176G96
         K19U06W KC2019 10 26.07065504 44 33.78 +44 47 49.2          20.0 GVEU176L01
         K19U06W KC2019 10 26.08874104 45 03.77 +45 02 34.8          19.8 GVEU176L01
         K19U06W pC2019 10 26.08965304 45 05.32 +45 03 19.6          20.1 GVEU176L01
         K19U06W pC2019 10 26.09056504 45 06.88 +45 04 03.7          20.0 GVEU176L01
         K19U06W KC2019 10 26.09147504 45 08.38 +45 04 48.4          20.2 GVEU176L01
         K19U06W KC2019 10 26.09239904 45 09.92 +45 05 33.4          20.0 GVEU176L01
    
    Observer details:
    G96 Mt. Lemmon Survey.  Observer G. J. Leonard.  Measurers E. J. Christensen, 
       G. A. Farneth, D. C. Fuls, A. R. Gibbs, A. D. Grauer, H. Groeller, R. A. 
       Kowalski, S. M. Larson, G. J. Leonard, T. A. Pruyne, D. Rankin, R. L. Seaman,
        F. C. Shelly, K. W. Wierzchos.  1.5-m reflector + 10K CCD.
    H01 Magdalena Ridge Observatory, Socorro.  Observers W. H. Ryan, E. V. Ryan.  
        Measurer W. H. Ryan.  2.4-m f/8.9 Ritchey-Chretien + CCD.
    I52 Steward Observatory, Mt. Lemmon Station.  Observers R. A. Kowalski, K. W. 
       Wierzchos.  Measurers E. J. Christensen, G. A. Farneth, D. C. Fuls, A. R. 
       Gibbs, A. D. Grauer, H. Groeller, R. A. Kowalski, S. M. Larson, G. J. 
       Leonard, T. A. Pruyne, D. Rankin, R. L. Seaman, F. C. Shelly, K. W. 
       Wierzchos.  1.0-m reflector + CCD.
    L01 Visnjan Observatory, Tican.  Observers K. Korlevic, F. Valentine.  Measurer 
       K. Korlevic.  1.0-m f/2.9 reflector + CCD.
    
    Orbital elements:
    2019 UW6                                                 Earth MOID = 0.0198 AU
    Epoch 2019 Apr. 27.0 TT = JDT 2458600.5                 Bell
    M 258.37617              (2000.0)            P               Q
    n   0.49107245     Peri.   31.10034     +0.47617793     -0.86668403
    a   1.5911300      Node    31.19498     +0.73624060     +0.30047054
    e   0.3868353      Incl.   16.68460     +0.48083714     +0.39821632
    P   2.01           H   26.6           G   0.15           U   7
    Residuals in seconds of arc
    191024 G96  0.3+  0.2-    191024 I52  0.5-  0.1+    191024 G96  0.3-  0.3+
    191024 G96  0.2+  0.1+    191024 I52  0.1+  0.2-    191026 L01  0.2-  0.3-
    191024 G96 (3.7-  2.9+)   191024 I52  0.0   0.3+    191026 L01  0.4-  0.0
    191024 H01  0.2-  0.2-    191024 I52  0.2+  0.0     191026 L01  0.1-  0.3+
    191024 H01  0.0   0.1+    191024 G96  0.2+  0.4+    191026 L01  0.3+  0.1-
    191024 H01  0.1-  0.2-    191024 G96  0.0   0.7+    191026 L01  0.2+  0.1+
    191024 H01  0.1-  0.2+    191024 G96  0.3+  1.4-    191026 L01  0.1+  0.1+
    
    Ephemeris:
    2019 UW6                 a,e,i = 1.59, 0.39, 17                  q = 0.9756
    Date    TT    R. A. (2000) Decl.     Delta      r    Elong.  Phase     V
    2019 09 26    02 30 10.3 -41 31 19   0.1966  1.1317   126.8    45.2    25.1
    ...
    2019 10 11    02 51 45.1 -36 46 17   0.09798 1.0637   129.6    46.3    23.4
    ...
    2019 10 19    03 16 33.7 -22 12 32   0.04861 1.0335   139.2    39.0    21.7
    ...
    2019 10 25    04 17 54.9 +29 35 10   0.02487 1.0144   142.5    36.7    20.1
    2019 10 26    04 42 27.9 +43 49 12   0.02512 1.0116   132.8    46.1    20.4
    2019 10 27    05 17 54.6 +56 26 06   0.02701 1.0088   122.5    56.2    20.8
    ...
    2019 11 02    11 56 41.0 +72 25 44   0.05562 0.9944    90.4    86.4    23.3
    ...
    2019 11 10    13 35 58.9 +63 23 51   0.1038  0.9812    81.9    92.1    24.9
    ...
    2019 11 25    14 06 18.3 +57 03 39   0.1920  0.9766    81.2    87.6    26.0
    
    A. U. Tomatic                (C) Copyright 2019 MPC           M.P.E.C. 2019-U176
    


    Read MPEC 2019-U175 Read MPEC 2019-U177


    MPEC number:

    Enter an MPEC number in one of the following forms:

    • 1997-B01 (the full form)
    • J97B01 (the packed version of the full form)
    • B01 (the abbreviated form)